EW2895 Weather Reports


time (UTC)temp
C
wind
direction
speed
KPH
gust
KPH
rain 1hr
cm
rain 24hr
cm
rain mn
cm
humidity
%
barometer
mb
20260509090515 12 296 0.0 1.6 0.03 1.12 0.15 95 1004.4
20260509090008 12 296 0.0 3.2 0.03 1.12 0.15 95 1004.4
20260509085450 12 296 0.0 3.2 0.03 1.12 0.15 95 1004.4
20260509084955 12 296 0.0 1.6 0.03 1.12 0.15 95 1004.3
20260509084951 12 296 0.0 3.2 0.03 1.12 0.15 95 1004.4
20260509084555 12 296 0.0 0.0 0.00 1.09 0.13 95 1004.3
20260509083948 12 296 0.0 0.0 0.00 1.09 0.13 95 1004.4
20260509083553 12 296 0.0 0.0 0.00 1.09 0.13 95 1004.3
20260509083050 12 296 0.0 0.0 0.00 1.09 0.13 95 1004.4
20260509081946 12 296 0.0 0.0 0.00 1.09 0.13 95 1004.4
20260509081421 12 296 0.0 1.6 0.00 1.09 0.13 95 1004.4
20260509080921 12 296 0.0 1.6 0.00 1.09 0.13 95 1004.4
20260509080916 12 296 0.0 0.0 0.00 1.09 0.13 95 1004.4
20260509075915 12 296 0.0 0.0 0.00 1.09 0.13 95 1004.4
20260509075414 12 296 0.0 0.0 0.00 1.09 0.13 95 1004.4
20260509074908 12 296 0.0 0.0 0.00 1.09 0.13 95 1004.4
20260509074902 12 296 0.0 0.0 0.00 1.09 0.13 95 1004.3
20260509073859 12 296 0.0 0.0 0.03 1.09 0.13 95 1004.3
20260509073356 12 296 0.0 0.0 0.03 1.09 0.13 95 1004.3
20260509072842 12 296 0.0 0.0 0.03 1.09 0.13 94 1004.5
20260509072259 12 296 0.0 0.0 0.03 1.09 0.13 94 1004.5
20260509071720 12 296 0.0 0.0 0.05 1.09 0.13 94 1004.5
20260509071135 12 296 0.0 0.0 0.08 1.09 0.13 94 1004.7
20260509070601 12 296 0.0 0.0 0.10 1.09 0.13 94 1004.7
20260509070522 12 296 0.0 0.0 0.10 1.09 0.13 94 1004.7
20260509065443 12 296 0.0 0.0 0.10 1.09 0.13 94 1005.2
20260509064901 12 296 0.0 0.0 0.13 1.09 0.13 94 1005.2
20260509064312 12 296 0.0 0.0 0.13 1.09 0.13 94 1005.3
20260509063751 12 296 0.0 0.0 0.10 1.07 0.10 94 1005.3
20260509063240 12 296 0.0 0.0 0.10 1.07 0.10 94 1005.3
20260509062735 12 296 0.0 0.0 0.10 1.07 0.10 94 1005.5
20260509062228 12 296 0.0 0.0 0.10 1.07 0.10 94 1005.5
20260509061728 12 296 0.0 1.6 0.08 1.04 0.08 94 1005.5
20260509061721 12 296 0.0 3.2 0.05 1.02 0.05 94 1005.8
20260509060715 12 296 0.0 3.2 0.05 1.02 0.05 94 1005.8
20260509060200 12 296 0.0 3.2 0.03 0.99 0.03 94 1005.8
20260509055700 12 296 0.0 6.4 0.03 0.99 0.03 94 1005.8
20260509055200 12 296 0.0 6.4 0.00 0.97 0.00 94 1005.8
20260509054701 12 296 0.0 1.6 0.00 0.97 0.00 94 1005.8
20260509054654 12 296 0.0 1.6 0.00 0.97 0.00 94 1006.1
20260509053636 12 296 0.0 1.6 0.00 0.97 0.00 94 1006.1
20260509053136 12 296 0.0 1.6 0.00 0.97 0.00 94 1006.1
20260509052637 12 296 0.0 1.6 0.00 0.97 0.00 94 1006.1
20260509052107 12 296 0.0 0.0 0.00 0.97 0.00 94 1006.1
20260509051609 12 296 0.0 0.0 0.00 0.97 0.00 94 1006.1
20260509051059 12 296 0.0 0.0 0.00 0.97 0.00 94 1006.0
20260509051041 12 296 0.0 1.6 0.00 0.97 0.00 94 1006.0
20260509050647 12 296 0.0 1.6 0.00 0.97 0.00 94 1006.0
20260509045528 12 296 0.0 1.6 0.00 0.97 0.00 94 1005.9
20260509045013 12 296 0.0 0.0 0.00 0.97 0.00 94 1005.9
20260509044512 12 296 0.0 0.0 0.00 0.97 0.00 94 1006.0
20260509043949 12 296 0.0 1.6 0.00 0.97 0.00 94 1006.0
20260509043410 12 296 0.0 1.6 0.00 0.97 0.00 94 1006.0
20260509042831 12 296 0.0 0.0 0.00 0.97 0.00 94 1005.9
20260509042254 12 296 0.0 1.6 0.00 0.97 0.00 94 1005.9
20260509041717 12 296 0.0 1.6 0.00 0.97 0.00 94 1005.9
20260509041639 12 296 0.0 0.0 0.00 0.97 0.00 94 1005.8
20260509040551 12 296 0.0 0.0 0.00 0.97 0.00 94 1005.8
20260509040014 12 296 0.0 0.0 0.03 0.97 0.00 94 1005.9
20260509035954 12 296 0.0 0.0 0.03 0.97 0.97 94 1005.9
20260509034954 12 296 0.0 0.0 0.03 0.97 0.97 94 1005.9
20260509034947 12 296 0.0 0.0 0.03 0.97 0.97 94 1005.8
20260509034427 12 296 0.0 0.0 0.03 0.97 0.97 94 1005.8
20260509033425 12 296 0.0 0.0 0.03 0.97 0.97 94 1005.8
20260509032914 12 296 0.0 0.0 0.03 0.97 0.97 94 1005.8
20260509032401 12 296 0.0 0.0 0.03 0.97 0.97 94 1005.8
20260509032347 12 296 0.0 0.0 0.05 0.97 0.97 94 1005.8
20260509031333 12 296 0.0 0.0 0.05 0.97 0.97 94 1005.9
20260509030818 12 296 0.0 0.0 0.08 0.97 0.97 94 1005.9
20260509030319 12 296 0.0 0.0 0.08 0.97 0.97 94 1005.9
20260509025805 12 296 0.0 0.0 0.05 0.94 0.94 93 1006.3
20260509025307 12 296 0.0 0.0 0.05 0.94 0.94 93 1006.3
20260509024751 12 296 0.0 0.0 0.05 0.94 0.94 93 1006.3
20260509024246 12 296 0.0 0.0 0.08 0.94 0.94 93 1006.3
20260509023736 12 296 0.0 0.0 0.08 0.94 0.94 93 1006.3
20260509023219 12 296 0.0 1.6 0.08 0.94 0.94 93 1006.3
20260509022717 12 296 0.0 1.6 0.08 0.94 0.94 93 1006.4
20260509022213 12 296 0.0 1.6 0.05 0.91 0.91 93 1006.4
20260509022207 12 296 0.0 6.4 0.05 0.91 0.91 93 1006.4
20260509021159 12 296 0.0 6.4 0.08 0.91 0.91 93 1006.3
20260509020639 12 296 0.0 6.4 0.05 0.89 0.89 93 1006.3
20260509020127 12 296 0.0 6.4 0.08 0.89 0.89 93 1006.1
20260509020123 12 296 0.0 4.8 0.05 0.89 0.89 93 1006.3
20260509015554 12 297 0.0 6.4 0.08 0.89 0.89 93 1006.1
20260509014536 12 296 0.0 1.6 0.10 0.89 0.89 93 1006.1
20260509014525 12 296 0.0 1.6 0.08 0.86 0.86 93 1006.2
20260509014128 12 296 0.0 1.6 0.08 0.86 0.86 93 1006.2
20260509013510 12 296 0.0 1.6 0.08 0.86 0.86 93 1006.2
20260509012502 12 296 0.0 1.6 0.08 0.86 0.86 93 1006.2
20260509011938 12 296 0.0 1.6 0.10 0.86 0.86 93 1006.2
20260509011439 12 296 0.0 0.0 0.10 0.86 0.86 93 1006.4
20260509010906 12 296 0.0 1.6 0.13 0.84 0.84 93 1006.4
20260509010902 12 296 0.0 0.0 0.10 0.84 0.84 93 1006.4
20260509005846 12 296 0.0 1.6 0.15 0.84 0.84 93 1006.4
20260509005837 12 296 0.0 0.0 0.15 0.81 0.81 93 1006.4
20260509004823 12 296 0.0 0.0 0.18 0.81 0.81 93 1006.4
20260509004313 12 296 0.0 0.0 0.15 0.79 0.79 93 1006.2
20260509003759 12 296 0.0 0.0 0.15 0.79 0.79 93 1006.2
20260509003254 12 296 0.0 0.0 0.15 0.79 0.79 92 1006.2
20260509002745 12 296 0.0 0.0 0.15 0.79 0.79 92 1006.4
20260509002232 12 296 0.0 0.0 0.18 0.79 0.79 92 1006.4
20260509001721 12 296 0.0 0.0 0.15 0.76 0.76 92 1006.4
20260509001221 12 296 0.0 0.0 0.18 0.76 0.76 92 1007.0
20260509000707 12 296 0.0 0.0 0.18 0.74 0.74 92 1007.0
20260509000702 12 296 0.0 6.4 0.15 0.69 0.69 92 1007.0
20260508235640 12 296 0.0 6.4 0.15 0.66 0.66 92 1007.0
20260508235136 12 296 0.0 0.0 0.18 0.66 0.66 92 1007.0
20260508234620 12 296 0.0 1.6 0.18 0.64 0.64 91 1007.0
20260508234107 12 296 0.0 1.6 0.18 0.64 0.64 91 1006.9
20260508233605 13 296 0.0 0.0 0.20 0.64 0.64 91 1006.9
20260508233109 13 296 0.0 0.0 0.20 0.64 0.64 91 1006.9
20260508232551 13 296 0.0 0.0 0.25 0.64 0.64 91 1006.7
20260508232034 13 296 0.0 0.0 0.23 0.61 0.61 91 1006.7
20260508232018 13 296 0.0 1.6 0.25 0.61 0.61 91 1007.3
20260508231013 13 296 0.0 1.6 0.25 0.58 0.58 91 1007.3
20260508230505 13 296 0.0 0.0 0.23 0.53 0.56 90 1007.3
20260508225957 13 296 0.0 0.0 0.23 0.51 0.51 90 1007.2
20260508225451 13 296 0.0 0.0 0.25 0.48 0.51 90 1007.2
20260508224948 13 296 0.0 0.0 0.30 0.48 0.48 89 1007.2
20260508224423 13 296 0.0 0.0 0.30 0.46 0.46 89 1007.2
20260508223923 13 296 0.0 0.0 0.33 0.46 0.46 89 1007.2
20260508223912 13 296 0.0 0.0 0.33 0.43 0.43 89 1007.2
20260508223517 13 296 0.0 0.0 0.33 0.41 0.41 88 1007.4
20260508222356 13 296 0.0 0.0 0.30 0.38 0.38 88 1007.4
20260508221851 13 296 0.0 0.0 0.28 0.36 0.36 88 1007.4
20260508221824 13 296 0.0 0.0 0.28 0.36 0.36 87 1007.4
20260508220817 13 296 0.0 0.0 0.28 0.33 0.33 87 1007.4
20260508220811 13 296 0.0 3.2 0.25 0.30 0.30 86 1007.4
20260508215810 13 296 0.0 3.2 0.23 0.25 0.28 86 1007.5
20260508215251 13 296 0.0 4.8 0.18 0.20 0.20 85 1007.5
20260508214752 13 296 0.0 4.8 0.18 0.18 0.18 85 1007.5
20260508214248 13 296 0.0 6.4 0.15 0.15 0.15 84 1007.2
20260508213713 13 296 0.0 6.4 0.10 0.10 0.10 83 1007.2
20260508213208 14 281 0.0 9.7 0.10 0.10 0.10 83 1007.2
20260508212651 14 281 0.0 9.7 0.08 0.08 0.08 81 1007.1
20260508212145 14 354 0.0 6.4 0.08 0.08 0.08 80 1007.1
20260508212139 15 354 1.6 11.3 0.08 0.08 0.08 78 1007.1
20260508211137 15 6 3.2 19.3 0.08 0.08 0.08 76 1007.0
20260508210642 16 331 1.6 14.5 0.05 0.05 0.05 71 1007.0
20260508210638 15 16 1.6 19.3 0.05 0.05 0.05 74 1007.0
20260508205635 16 235 0.0 11.3 0.03 0.03 0.03 66 1006.4
20260508205133 16 229 0.0 3.2 0.00 0.00 0.00 64 1006.4
20260508205117 17 229 0.0 1.6 0.00 0.00 0.00 66 1006.4
20260508204110 17 229 0.0 1.6 0.00 0.00 0.00 64 1006.3
20260508203603 17 229 0.0 3.2 0.00 0.00 0.00 62 1006.3
20260508203108 17 229 0.0 1.6 0.00 0.00 0.00 60 1006.4
20260508203103 17 229 0.0 3.2 0.00 0.00 0.00 62 1006.3
20260508202045 17 229 0.0 3.2 0.00 0.00 0.00 54 1006.4
20260508201526 18 229 0.0 3.2 0.00 0.00 0.00 55 1006.4
20260508201026 18 229 0.0 1.6 0.00 0.00 0.00 56 1006.5
20260508200525 18 229 0.0 1.6 0.00 0.00 0.00 55 1006.5
20260508200023 18 229 0.0 1.6 0.00 0.00 0.00 54 1006.5
20260508195519 18 229 0.0 1.6 0.00 0.00 0.00 54 1006.9
20260508195004 18 229 0.0 1.6 0.00 0.00 0.00 55 1006.9
20260508194948 18 229 0.0 1.6 0.00 0.00 0.00 53 1006.9
20260508194553 18 229 0.0 1.6 0.00 0.00 0.00 52 1006.9
20260508193438 18 229 0.0 1.6 0.00 0.00 0.00 53 1006.9
20260508192919 18 229 0.0 1.6 0.00 0.00 0.00 55 1007.3
20260508192409 17 229 0.0 1.6 0.00 0.00 0.00 56 1007.3
20260508191909 17 229 0.0 1.6 0.00 0.00 0.00 55 1007.3
20260508191351 17 229 0.0 3.2 0.00 0.00 0.00 53 1007.5
20260508190850 17 229 0.0 3.2 0.00 0.00 0.00 53 1007.5
20260508190349 17 229 0.0 1.6 0.00 0.00 0.00 53 1007.5
20260508185847 17 229 0.0 1.6 0.00 0.00 0.00 52 1008.0
20260508185349 17 229 1.6 14.5 0.00 0.00 0.00 54 1008.0
20260508185345 17 229 0.0 9.7 0.00 0.00 0.00 53 1008.0
20260508184331 17 254 3.2 14.5 0.00 0.00 0.00 53 1008.1
20260508184324 17 272 3.2 22.5 0.00 0.00 0.00 52 1008.1
20260508183927 17 287 0.0 9.7 0.00 0.00 0.00 53 1008.1
20260508183322 17 253 1.6 22.5 0.00 0.00 0.00 53 1008.1
20260508182321 17 222 0.0 8.0 0.00 0.00 0.00 54 1008.1
20260508181816 17 222 1.6 8.0 0.00 0.00 0.00 53 1008.1
20260508181313 17 191 1.6 9.7 0.00 0.00 0.00 54 1008.2
20260508180815 17 206 0.0 8.0 0.00 0.00 0.00 52 1008.2
20260508180811 17 191 1.6 9.7 0.00 0.00 0.00 53 1008.2
20260508175804 17 264 0.0 8.0 0.00 0.00 0.00 52 1008.4
20260508175300 17 264 1.6 8.0 0.00 0.00 0.00 51 1008.4
20260508174755 17 271 1.6 6.4 0.00 0.00 0.00 51 1008.4
20260508174252 17 272 0.0 8.0 0.00 0.00 0.00 52 1008.7
20260508173751 17 265 1.6 12.9 0.00 0.00 0.00 52 1008.7
20260508173239 17 265 1.6 12.9 0.00 0.00 0.00 50 1008.7
20260508172741 17 197 3.2 11.3 0.00 0.00 0.00 48 1008.6
20260508172737 17 204 1.6 12.9 0.00 0.00 0.00 51 1008.6
20260508171732 18 209 1.6 9.7 0.00 0.00 0.00 49 1008.7
20260508171728 18 192 3.2 11.3 0.00 0.00 0.00 46 1008.6
20260508171222 18 209 1.6 9.7 0.00 0.00 0.00 52 1008.7
20260508170217 18 185 1.6 9.7 0.00 0.00 0.00 51 1008.7
20260508165715 18 185 1.6 16.1 0.00 0.00 0.00 48 1009.0
20260508165215 18 249 1.6 19.3 0.00 0.00 0.00 47 1009.0
20260508165211 18 295 1.6 16.1 0.00 0.00 0.00 46 1009.0
20260508164201 18 297 1.6 19.3 0.00 0.00 0.00 46 1009.2
20260508163700 18 189 1.6 14.5 0.00 0.00 0.00 46 1009.2
20260508163155 18 241 1.6 14.5 0.00 0.00 0.00 47 1009.2
20260508162652 18 283 1.6 12.9 0.00 0.00 0.00 48 1009.5
20260508162149 18 180 3.2 14.5 0.00 0.00 0.00 47 1009.5
20260508161648 18 148 4.8 14.5 0.00 0.00 0.00 45 1009.5
20260508161149 18 169 3.2 14.5 0.00 0.00 0.00 49 1009.3
20260508160645 18 208 1.6 11.3 0.00 0.00 0.00 47 1009.3
20260508160143 18 237 1.6 11.3 0.00 0.00 0.00 50 1009.3
20260508155627 18 200 1.6 9.7 0.00 0.00 0.00 49 1009.7
20260508155124 18 258 1.6 14.5 0.00 0.00 0.00 49 1009.7
20260508155107 17 231 1.6 14.5 0.00 0.00 0.00 47 1009.7
20260508154104 17 222 1.6 8.0 0.00 0.00 0.00 49 1009.8
20260508153605 17 292 1.6 8.0 0.00 0.00 0.00 51 1009.8
20260508153105 17 226 3.2 12.9 0.00 0.00 0.00 49 1009.8
20260508153101 17 210 3.2 12.9 0.00 0.00 0.00 49 1009.8
20260508152702 17 160 1.6 12.9 0.00 0.00 0.00 48 1009.8
20260508151555 17 253 1.6 16.1 0.00 0.00 0.00 48 1009.8
20260508151055 17 99 1.6 16.1 0.00 0.00 0.00 48 1009.8
20260508150554 17 168 1.6 14.5 0.00 0.00 0.00 50 1009.8
20260508150055 17 259 1.6 14.5 0.00 0.00 0.00 48 1009.8
20260508145554 17 281 1.6 11.3 0.00 0.00 0.00 49 1009.9
20260508145055 17 249 1.6 11.3 0.00 0.00 0.00 48 1009.9
20260508144545 17 220 0.0 4.8 0.00 0.00 0.00 48 1009.9
20260508144026 17 101 1.6 12.9 0.00 0.00 0.00 51 1010.4
20260508143518 17 244 1.6 12.9 0.00 0.00 0.00 47 1010.4
20260508143018 16 327 1.6 8.0 0.00 0.00 0.00 48 1010.4
20260508142517 16 286 0.0 8.0 0.00 0.00 0.00 50 1010.4
20260508142012 16 185 0.0 9.7 0.00 0.00 0.00 51 1010.4
20260508141512 16 229 0.0 9.7 0.00 0.00 0.00 48 1010.4
20260508141007 16 283 0.0 6.4 0.00 0.00 0.00 49 1010.4
20260508140458 16 283 0.0 6.4 0.00 0.00 0.00 50 1010.4
20260508135951 16 282 0.0 4.8 0.00 0.00 0.00 51 1010.7
20260508135908 15 254 1.6 9.7 0.00 0.00 0.00 51 1010.7
20260508135513 15 284 0.0 3.2 0.00 0.00 0.00 52 1010.7
20260508134401 15 245 1.6 9.7 0.00 0.00 0.00 50 1010.8
20260508133901 15 258 0.0 8.0 0.00 0.00 0.00 50 1010.8
20260508133402 15 251 0.0 8.0 0.00 0.00 0.00 52 1010.8
20260508133339 15 258 0.0 8.0 0.00 0.00 0.00 53 1011.0
20260508132334 15 247 0.0 3.2 0.00 0.00 0.00 52 1011.0
20260508131821 14 247 0.0 9.7 0.00 0.00 0.00 53 1011.0
20260508131320 14 283 0.0 9.7 0.00 0.00 0.00 52 1010.9
20260508130818 13 249 0.0 4.8 0.00 0.00 0.00 52 1010.9
20260508130318 13 249 0.0 6.4 0.00 0.00 0.00 54 1010.9
20260508125816 13 243 0.0 6.4 0.00 0.00 0.00 54 1010.9
20260508125317 12 225 0.0 4.8 0.00 0.00 0.00 55 1010.9
20260508124816 12 225 0.0 8.0 0.00 0.00 0.00 57 1010.9
20260508124316 12 254 1.6 25.7 0.00 0.00 0.00 57 1010.7
20260508123806 11 213 0.0 25.7 0.00 0.00 0.00 57 1010.7
20260508123757 11 233 0.0 1.6 0.00 0.00 0.00 59 1010.7
20260508122745 11 233 0.0 1.6 0.00 0.00 0.00 59 1010.8
20260508122221 11 233 1.6 8.0 0.00 0.00 0.00 59 1010.8
20260508121712 11 233 1.6 8.0 0.00 0.00 0.00 59 1010.8
20260508121200 10 320 0.0 6.4 0.00 0.00 0.00 61 1010.8
20260508120701 10 306 0.0 3.2 0.00 0.00 0.00 62 1010.8
20260508120157 10 279 0.0 3.2 0.00 0.00 0.00 63 1010.8
20260508115649 10 281 0.0 1.6 0.00 0.00 0.00 64 1010.7
20260508115123 9 281 0.0 0.0 0.00 0.00 0.00 65 1010.7
20260508114613 9 281 0.0 0.0 0.00 0.00 0.00 64 1010.7
20260508114059 9 281 0.0 0.0 0.00 0.00 0.00 65 1010.7
20260508113531 9 281 0.0 0.0 0.00 0.00 0.00 65 1010.7
20260508113023 9 281 0.0 0.0 0.00 0.00 0.00 65 1010.7
20260508112519 9 281 0.0 8.0 0.00 0.00 0.00 65 1010.7
20260508112514 9 281 0.0 8.0 0.00 0.00 0.00 65 1010.7
20260508111511 8 281 0.0 1.6 0.00 0.00 0.00 65 1010.6
20260508111008 8 281 0.0 1.6 0.00 0.00 0.00 65 1010.6
20260508110505 8 281 0.0 0.0 0.00 0.00 0.00 64 1010.6
20260508110500 8 281 0.0 0.0 0.00 0.00 0.00 64 1010.4
20260508105440 8 281 0.0 1.6 0.00 0.00 0.00 64 1010.4
20260508104934 8 281 0.0 1.6 0.00 0.00 0.00 64 1010.4
20260508104414 8 281 0.0 0.0 0.00 0.00 0.00 65 1010.4
20260508103914 8 281 0.0 0.0 0.00 0.00 0.00 67 1010.4
20260508103355 8 281 0.0 0.0 0.00 0.00 0.00 67 1010.4
20260508102812 8 281 0.0 1.6 0.00 0.00 0.00 67 1010.4
20260508102244 8 281 0.0 1.6 0.00 0.00 0.00 67 1010.4
20260508102216 8 281 0.0 0.0 0.00 0.00 0.00 67 1010.4
20260508101216 8 281 0.0 0.0 0.00 0.00 0.00 68 1010.2
20260508100702 8 281 0.0 0.0 0.00 0.00 0.00 68 1010.2
20260508100152 8 281 0.0 0.0 0.00 0.00 0.00 68 1010.2
20260508095638 8 281 0.0 0.0 0.00 0.00 0.00 67 1010.2
20260508095120 8 281 0.0 0.0 0.00 0.00 0.00 66 1010.2
20260508094602 9 281 0.0 0.0 0.00 0.00 0.00 65 1010.2
20260508094555 9 281 0.0 0.0 0.00 0.00 0.00 65 1010.3
20260508093548 9 281 0.0 0.0 0.00 0.00 0.00 63 1010.3
20260508093048 10 281 0.0 0.0 0.00 0.00 0.00 63 1010.3
20260508092542 10 281 0.0 0.0 0.00 0.00 0.00 62 1010.2
20260508092034 10 281 0.0 0.0 0.00 0.00 0.00 62 1010.2
20260508091528 10 281 0.0 0.0 0.00 0.00 0.00 61 1010.2
20260508091511 10 281 0.0 0.0 0.00 0.00 0.00 60 1010.2
20260508091005 10 281 0.0 0.0 0.00 0.00 0.00 60 1010.2